SCP
0 0 0 0 0 0 0 0 0 0 0 0 0 0 0 0 0 0 0 0 0 0 0 0 0 0 0 0 0 0 0 0 0 0 0 0 0 0 0 0 0 0 0 0 0
0 0 0 0 0 0 0 0 0 0 0 0 0 0 0 0 0 0 0 0 0 0 0 0 0 0 0 0 0 0 0 0 0 0 0 0 0 0 0 0 0 0 0 0 0
0 0 0 0 0 0 0 0 0 0 0 0 0 0 0 0 0 0 0 0 0 0 0 0 0 0 0 0 0 0 0 0 0 0 0 0 0 0 0 0 0 0 0 0 0
0 0 0 0 0 0 0 0 0 0 0 0 0 0 0 0 0 0 0 0 0 0 0 0 0 0 0 0 0 0 0 0 0 0 0 0 0 0 0 0 0 0 0 0 0
0 0 0 0 0 0 0 0 0 0 0 0 0 0 0 0 0 0 0 0 0 0 0 0 0 0 0 0 0 0 0 0 0 0 0 0 0 0 0 0 0 0 0 0 0
0 0 0 0 0 0 0 0 0 0 0 0 0 0 0 0 0 0 0 0 0 0 0 0 0 0 0 0 0 0 0 0 0 0 0 0 0 0 0 0 0 0 0 0 0
0 0 0 0 0 0 0 0 0 0 0 0 0 0 0 0 0 0 0 0 0 0 0 0 0 0 0 0 0 0 0 0 0 0 0 0 0 0 0 0 0 0 0 0 0
0 0 0 0 0 0 0 0 0 0 0 0 0 0 0 0 0 0 0 0 0 0 0 0 0 0 0 0 0 0 0 0 0 0 0 0 0 0 0 0 -0 0 0 0 0
0 0 0 0 0 0 0 0 0 0 0 0 0 0 0 0 0 0 0 0 0 0 0 0 0 0 0 0 0 0 0 0 0 0 0 0 0 0 0 0 0 0 0 0 0
0 0 0 0 0 0 0 0 0 0 0 0 0 0 0 0 0 0 0 0 0 0 0 0 0 0 0 0 0 0 0 0 0 0 0 0 0 0 0 0 0 0 0 0 0
0 0 0 0 0 0 0 0 0 0 0 0 0 0 0 0 0 0 0 0 0 0 0 0 0 0 0 0 0 0 0 0 0 0 0 0 0 0 0 0 0 0 0 0 0
0 0 0 0 0 0 0 0 0 0 0 0 0 0 0 0 0 0 0 0 0 0 0 0 0 0 0 0 0 0 0 0 0 0 0 0 0 0 0 0 0 0 0 0 0
0 0 0 0 0 0 0 0 0 0 0 0 0 0 0 0 0 0 0 0 0 0 0 0 0 0 0 0 0 0 0 0 0 0 0 0 0 0 0 0 0 0 0 0 0
0 0 0 0 0 0 0 0 0 0 0 0 0 0 0 0 0 0 0 0 0 0 0 0 0 0 0 0 0 0 0 0 0 0 0 0 0 0 0 0 0 0 0 0 0
0 0 0 0 0 0 0 0 0 0 0 0 0 0 0 0 0 0 0 0 0 0 0 0 0 0 0 0 0 0 0 0 0 0 0 0 0 0 0 0 0 0 0 0 0
0 0 0 0 0 0 0 0 0 0 0 0 0 0 0 0 0 0 0 0 0 0 0 0 0 0 0 0 0 0 0 0 0 0 0 0 0 0 0 0 0 0 0 0 0
0 0 0 0 0 0 0 0 0 0 0 0 0 0 0 0 0 0 0 0 0 0 0 0 0 0 0 0 0 0 0 0 0 0 0 0 0 0 0 0 0 0 0 0 0
0 0 0 0 0 0 0 0 0 0 0 0 0 0 0 0 0 0 0 0 0 0 0 0 0 0 0 0 0 0 0 0 0 0 0 0 0 0 0 0 0 0 0 0 0
0 0 0 0 0 0 0 0 0 0 0 0 0 0 0 0 0 0 0 0 0 0 0 0 0 0 0 0 0 0 0 0 0 0 0 0 0 0 0 0 0 0 0 0 0
0 0 0 0 0 0 0 0 0 0 0 0 0 0 0 0 0 0 0 0 0 0 0 0 0 0 0 0 0 0 0 0 0 0 0 0 0 0 0 0 0 0 0 0 0
0 0 0 0 0 0 0 0 0 0 0 0 0 0 0 0 0 0 0 0 0 0 0 0 0 0 0 0 0 0 0 0 0 0 0 0 0 0 0 0 0 0 0 0 0
0 0 0 0 0 0 0 0 0 0 0 0 0 0 0 0 0 0 0 0 0 0 0 0 0 0 0 0 0 0 0 0 0 0 0 0 0 0 0 0 0 0 0 0 0
0 0 0 0 0 0 0 0 0 0 0 0 0 0 0 0 0 0 0 0 0 0 0 0 0 0 0 0 0 0 0 0 0 0 0 0 0 0 0 0 0 0 0 0 0
0 0 0 0 0 0 0 0 0 0 0 0 0 0 0 0 0 0 0 0 0 0 0 0 0 0 0 0 0 0 0 0 0 0 0 0 0 0 0 0 0 0 0 0 0
0 0 0 0 0 0 0 0 0 0 0 0 0 0 0 0 0 0 0 0 0 0 0 0 0 0 0 0 0 0 0 0 0 0 0 0 0 0 0 0 0 0 0 0 0
0 0 0 0 0 0 0 0 0 0 0 0 0 0 0 0 0 0 0 0 0 0 0 0 0 0 0 0 0 0 0 0 0 0 0 0 0 0 0 0 0 0 0 0 0
0 0 0 0 0 0 0 0 0 0 0 0 0 0 0 0 0 0 0 0 0 0 0 0 0 0 0 0 0 0 0 0 0 0 0 0 0 0 0 0 0 0 0 0 0
Wind_Speed_500mb
12 11 11 10 9 9 9 10 11 12 13 14 15 17 19 21 24 26 27 9 10 11 8 7 7 2 2 3 4 4 8 3 8 9 7 9 11 7 21 14 7 16 13 19 28
16 15 14 13 13 12 13 13 13 14 15 16 19 20 23 24 27 26 9 3 5 6 8 10 9 4 3 4 2 7 7 14 8 5 6 11 5 15 13 30 13 18 31 24 21
19 18 17 17 17 17 17 18 18 19 19 20 21 22 23 24 29 5 7 5 6 10 14 12 8 2 1 3 6 7 10 9 8 19 11 7 13 2 6 12 40 36 42 32 24
23 22 21 21 21 21 22 22 22 23 22 21 21 22 22 18 7 7 9 5 5 9 13 14 8 5 4 4 8 2 16 13 8 7 8 9 17 9 20 43 45 36 22 10 7
28 27 26 26 26 26 25 25 25 25 23 22 23 22 22 14 20 20 21 20 18 17 20 16 15 10 6 7 5 6 8 15 24 33 25 23 27 17 48 36 14 5 15 17 10
35 33 32 31 30 28 26 26 25 25 26 24 24 23 21 15 20 20 22 18 18 20 24 20 11 16 6 6 7 3 9 21 23 38 25 13 11 5 9 6 16 7 12 11 8
37 36 34 33 32 30 28 28 27 26 27 25 24 23 27 38 24 20 22 17 15 18 21 22 20 13 9 2 4 5 10 15 19 11 10 9 2 12 13 19 13 11 9 8 11
38 36 35 34 33 32 30 28 27 26 27 27 24 23 21 25 27 28 30 27 23 22 20 18 14 14 7 2 6 4 6 6 5 5 1 8 13 12 18 39 15 13 12 13 14
36 36 35 34 32 30 29 28 27 27 28 27 24 17 17 21 23 27 24 19 18 19 19 14 14 7 6 9 8 7 7 9 15 4 5 5 10 19 31 42 5 13 15 17 18
33 34 34 30 27 28 27 27 26 29 29 26 26 10 27 14 15 18 18 17 11 16 13 11 8 6 5 7 10 10 9 9 10 2 9 6 16 11 42 21 22 24 25 27 27
35 33 32 31 27 27 23 23 18 14 26 22 10 13 6 20 17 18 21 24 17 13 9 6 7 15 24 22 7 5 7 8 7 10 2 11 8 11 19 28 28 30 34 37 42
38 37 33 30 29 27 24 15 16 10 18 33 48 44 34 17 13 24 26 20 14 11 13 6 13 24 8 10 13 6 8 13 10 10 10 13 2 6 18 13 20 30 37 41 43
42 39 34 31 28 31 28 27 22 16 11 20 44 35 44 45 25 25 32 18 10 12 15 15 12 9 14 10 10 9 11 9 13 5 4 5 10 6 10 25 30 31 35 37 42
47 41 35 31 26 31 34 19 20 9 6 11 11 12 20 19 11 28 40 19 7 20 12 12 13 11 9 12 14 9 14 11 6 6 7 4 9 4 9 9 15 24 29 33 38
49 46 41 40 22 21 15 20 21 9 11 5 8 14 21 17 16 5 28 10 12 13 12 12 7 9 10 11 11 12 6 10 6 7 4 5 2 6 14 10 10 16 25 28 33
49 49 46 47 46 36 21 23 23 5 20 7 11 11 11 8 8 11 10 6 4 5 4 12 3 8 12 4 12 8 7 10 8 5 2 16 14 7 11 11 14 26 28 29 30
61 55 60 59 58 44 36 31 7 14 1 11 9 10 8 10 8 9 12 11 11 9 10 2 7 1 4 8 7 9 10 5 7 3 11 4 5 9 5 5 31 37 40 32 29
67 59 65 69 57 51 48 10 19 15 17 7 10 7 13 14 8 11 13 10 12 6 7 11 7 14 7 12 14 11 13 10 12 5 7 4 11 7 4 13 46 53 46 37 30
70 71 81 74 62 69 47 18 16 12 12 18 7 8 9 9 11 8 14 12 17 22 14 10 8 3 5 6 9 9 9 9 12 4 5 8 5 3 6 10 30 44 42 39 33
55 59 66 74 76 79 24 34 10 9 10 9 21 13 18 14 14 15 18 9 11 21 5 10 2 5 4 7 5 9 12 6 4 2 8 8 10 9 14 20 18 28 48 45 37
57 31 35 69 61 39 17 14 9 14 9 11 15 12 12 14 17 11 9 6 11 10 13 11 8 3 6 12 17 6 6 8 7 8 9 3 12 8 24 31 33 44 62 56 48
64 8 32 54 17 9 7 13 14 11 7 1 5 4 11 8 7 10 16 13 16 22 17 8 10 8 15 1 5 5 12 13 11 12 7 4 25 2 19 44 51 53 59 52 46
22 28 54 73 18 14 6 8 12 12 17 15 11 9 8 18 11 19 13 5 10 16 17 14 1 4 11 4 2 8 8 7 9 6 28 11 18 5 12 29 50 47 54 49 45
13 0 16 24 13 33 28 17 15 15 7 8 9 12 10 11 11 14 14 5 8 11 6 8 7 14 24 12 9 9 11 11 10 10 10 31 25 7 11 18 31 45 38 43 49
13 8 1 8 12 13 30 23 21 15 16 22 1 11 17 12 7 11 6 5 3 4 6 13 20 9 2 5 5 9 11 22 18 18 19 16 18 11 21 23 45 45 30 39 48
13 7 1 8 5 22 18 20 34 15 20 10 13 22 22 12 15 15 12 7 10 4 8 2 4 4 4 4 6 9 18 14 17 11 12 11 39 13 21 33 33 38 28 41 46
25 18 10 8 5 10 6 11 19 18 17 15 30 16 27 40 24 10 15 18 15 18 14 10 11 7 18 3 6 14 22 30 17 15 21 26 36 10 8 24 41 36 31 39 48
Wind_Direction_500mb
249 253 255 256 262 267 272 282 292 297 302 306 307 309 311 312 311 311 310 278 245 240 249 209 188 189 132 107 73 96 63 200 235 183 255 337 6 308 325 276 272 290 286 308 308
250 251 255 261 266 269 275 277 279 284 291 297 301 304 309 312 310 307 287 260 195 170 160 159 168 151 117 125 135 93 115 222 221 203 237 305 282 320 317 306 305 300 325 318 295
251 255 261 264 270 273 275 278 282 284 288 292 294 297 304 313 316 241 187 141 135 145 151 159 170 208 185 184 194 165 197 208 247 252 275 286 292 139 263 302 302 326 325 316 298
253 254 258 265 268 271 274 277 279 282 286 289 290 294 298 306 296 208 194 203 234 215 196 196 216 174 166 213 202 210 251 233 272 240 285 273 297 278 238 276 303 323 323 356 8
254 257 260 264 267 270 273 275 278 280 283 285 287 288 290 275 258 256 248 259 258 239 220 219 215 194 183 207 188 216 273 276 278 283 286 277 265 271 278 304 333 356 46 51 34
260 261 263 263 264 266 268 271 273 275 280 282 283 282 277 253 257 253 250 252 244 238 224 224 230 215 201 224 184 264 276 283 287 279 274 252 271 196 291 23 10 9 20 14 8
259 262 262 262 261 261 262 265 270 275 279 280 282 278 267 262 265 256 249 238 227 228 225 230 214 198 175 238 253 287 316 321 278 281 205 180 282 226 279 336 2 14 25 17 15
257 257 259 259 261 263 264 267 270 273 279 281 280 277 258 260 252 249 244 246 240 229 224 225 219 227 223 202 6 359 40 328 275 154 13 142 261 282 344 352 70 78 71 77 65
258 259 257 259 261 261 264 267 271 274 277 278 277 252 263 258 243 238 237 230 221 215 215 206 194 191 140 94 360 2 238 213 313 256 143 146 256 273 329 333 91 84 86 83 80
255 258 259 257 258 262 266 270 278 280 273 270 250 260 238 231 223 218 210 197 182 180 165 179 164 92 59 108 226 210 221 240 233 202 32 297 257 346 349 15 107 91 85 81 74
253 249 251 255 255 256 260 277 281 270 237 221 230 218 271 210 199 199 193 177 163 166 156 159 122 206 204 200 177 174 190 231 261 263 297 240 254 4 15 66 84 92 92 85 77
249 248 245 242 244 252 254 247 237 267 295 259 251 246 241 225 214 204 191 182 176 181 120 63 221 230 141 184 214 219 241 254 274 265 172 282 250 104 56 54 89 100 99 96 92
244 243 241 238 239 245 247 244 257 268 262 262 242 243 235 232 227 211 199 196 170 159 191 179 216 185 176 177 169 220 197 226 222 340 307 326 290 182 64 87 97 102 106 101 94
236 234 229 231 244 246 248 247 232 228 277 254 212 213 193 178 227 216 197 194 191 201 175 236 248 187 176 208 150 232 207 223 184 124 228 44 278 232 127 83 67 100 100 99 99
235 226 225 217 217 220 232 216 188 177 273 175 165 160 162 173 136 165 185 185 169 179 136 242 178 171 196 212 159 232 146 165 145 137 88 277 314 251 122 162 166 141 128 120 109
242 224 219 221 222 232 229 187 159 125 240 202 145 162 132 175 155 124 153 145 133 158 197 236 264 182 205 109 163 132 104 54 54 107 270 216 180 222 186 188 165 168 153 139 125
237 237 219 220 223 218 208 170 176 219 22 194 187 164 173 162 170 150 153 164 160 137 224 307 239 193 158 85 33 77 74 330 333 351 235 123 152 260 306 278 179 166 162 153 140
243 235 231 222 230 224 197 175 213 187 200 129 132 103 179 158 208 166 134 175 218 185 132 171 271 166 185 177 182 179 161 160 236 211 268 326 237 259 344 98 143 159 160 160 156
251 230 228 221 226 222 202 210 220 171 175 151 96 148 221 205 148 145 187 200 194 182 176 147 262 162 165 147 140 182 185 176 109 92 39 232 288 210 100 89 134 157 168 173 172
233 248 236 234 235 223 208 218 230 208 149 150 176 171 181 193 162 183 178 198 199 188 174 190 252 200 171 115 46 157 160 98 18 222 246 277 273 237 207 184 175 181 188 189 186
234 218 230 235 218 197 222 208 183 231 199 170 193 161 180 176 172 186 194 229 190 170 160 144 149 231 122 202 180 152 174 68 128 143 181 251 256 216 199 187 186 195 197 195 195
214 199 200 195 188 181 196 175 174 174 182 266 81 127 166 147 143 203 202 213 170 148 164 190 136 174 205 178 319 300 186 160 199 228 236 176 260 248 197 187 186 200 203 203 205
220 206 182 184 207 193 170 199 168 156 187 174 211 205 187 174 196 220 194 131 170 161 166 183 144 38 326 352 349 217 215 152 114 83 222 200 253 14 130 169 196 200 207 208 207
197 146 197 214 226 208 187 196 177 196 199 176 164 166 169 189 216 200 209 168 154 153 141 155 167 185 227 206 137 178 203 189 160 200 199 232 260 224 191 206 200 206 212 213 215
184 208 303 194 226 204 193 170 191 175 212 185 162 198 193 203 198 200 127 109 24 161 112 162 222 175 33 109 139 204 200 188 193 208 201 242 224 211 201 206 207 205 220 217 210
163 170 222 312 181 207 188 188 184 165 168 196 212 198 216 206 193 192 143 170 191 90 150 355 187 92 213 4 17 285 238 221 234 242 259 258 263 152 209 218 214 230 235 216 212
216 221 167 197 227 154 203 178 190 146 194 192 202 198 207 221 203 170 181 183 176 163 166 145 134 129 243 50 132 283 240 204 207 198 202 225 248 138 197 216 233 241 231 226 211
Wind_Speed_850mb
12 11 11 10 9 9 9 10 11 12 13 14 15 17 19 21 24 26 27 9 10 11 8 7 7 2 2 3 4 4 8 3 8 9 7 9 11 7 21 14 7 16 13 19 28
16 15 14 13 13 12 13 13 13 14 15 16 19 20 23 24 27 26 9 3 5 6 8 10 9 4 3 4 2 7 7 14 8 5 6 11 5 15 13 30 13 18 31 24 21
19 18 17 17 17 17 17 18 18 19 19 20 21 22 23 24 29 5 7 5 6 10 14 12 8 2 1 3 6 7 10 9 8 19 11 7 13 2 6 12 40 36 42 32 24
23 22 21 21 21 21 22 22 22 23 22 21 21 22 22 18 7 7 9 5 5 9 13 14 8 5 4 4 8 2 16 13 8 7 8 9 17 9 20 43 45 36 22 10 7
28 27 26 26 26 26 25 25 25 25 23 22 23 22 22 14 20 20 21 20 18 17 20 16 15 10 6 7 5 6 8 15 24 33 25 23 27 17 48 36 14 5 15 17 10
35 33 32 31 30 28 26 26 25 25 26 24 24 23 21 15 20 20 22 18 18 20 24 20 11 16 6 6 7 3 9 21 23 38 25 13 11 5 9 6 16 7 12 11 8
37 36 34 33 32 30 28 28 27 26 27 25 24 23 27 38 24 20 22 17 15 18 21 22 20 13 9 2 4 5 10 15 19 11 10 9 2 12 13 19 13 11 9 8 11
38 36 35 34 33 32 30 28 27 26 27 27 24 23 21 25 27 28 30 27 23 22 20 18 14 14 7 2 6 4 6 6 5 5 1 8 13 12 18 39 15 13 12 13 14
36 36 35 34 32 30 29 28 27 27 28 27 24 17 17 21 23 27 24 19 18 19 19 14 14 7 6 9 8 7 7 9 15 4 5 5 10 19 31 42 5 13 15 17 18
33 34 34 30 27 28 27 27 26 29 29 26 26 10 27 14 15 18 18 17 11 16 13 11 8 6 5 7 10 10 9 9 10 2 9 6 16 11 42 21 22 24 25 27 27
35 33 32 31 27 27 23 23 18 14 26 22 10 13 6 20 17 18 21 24 17 13 9 6 7 15 24 22 7 5 7 8 7 10 2 11 8 11 19 28 28 30 34 37 42
38 37 33 30 29 27 24 15 16 10 18 33 48 44 34 17 13 24 26 20 14 11 13 6 13 24 8 10 13 6 8 13 10 10 10 13 2 6 18 13 20 30 37 41 43
42 39 34 31 28 31 28 27 22 16 11 20 44 35 44 45 25 25 32 18 10 12 15 15 12 9 14 10 10 9 11 9 13 5 4 5 10 6 10 25 30 31 35 37 42
47 41 35 31 26 31 34 19 20 9 6 11 11 12 20 19 11 28 40 19 7 20 12 12 13 11 9 12 14 9 14 11 6 6 7 4 9 4 9 9 15 24 29 33 38
49 46 41 40 22 21 15 20 21 9 11 5 8 14 21 17 16 5 28 10 12 13 12 12 7 9 10 11 11 12 6 10 6 7 4 5 2 6 14 10 10 16 25 28 33
49 49 46 47 46 36 21 23 23 5 20 7 11 11 11 8 8 11 10 6 4 5 4 12 3 8 12 4 12 8 7 10 8 5 2 16 14 7 11 11 14 26 28 29 30
61 55 60 59 58 44 36 31 7 14 1 11 9 10 8 10 8 9 12 11 11 9 10 2 7 1 4 8 7 9 10 5 7 3 11 4 5 9 5 5 31 37 40 32 29
67 59 65 69 57 51 48 10 19 15 17 7 10 7 13 14 8 11 13 10 12 6 7 11 7 14 7 12 14 11 13 10 12 5 7 4 11 7 4 13 46 53 46 37 30
70 71 81 74 62 69 47 18 16 12 12 18 7 8 9 9 11 8 14 12 17 22 14 10 8 3 5 6 9 9 9 9 12 4 5 8 5 3 6 10 30 44 42 39 33
55 59 66 74 76 79 24 34 10 9 10 9 21 13 18 14 14 15 18 9 11 21 5 10 2 5 4 7 5 9 12 6 4 2 8 8 10 9 14 20 18 28 48 45 37
57 31 35 69 61 39 17 14 9 14 9 11 15 12 12 14 17 11 9 6 11 10 13 11 8 3 6 12 17 6 6 8 7 8 9 3 12 8 24 31 33 44 62 56 48
64 8 32 54 17 9 7 13 14 11 7 1 5 4 11 8 7 10 16 13 16 22 17 8 10 8 15 1 5 5 12 13 11 12 7 4 25 2 19 44 51 53 59 52 46
22 28 54 73 18 14 6 8 12 12 17 15 11 9 8 18 11 19 13 5 10 16 17 14 1 4 11 4 2 8 8 7 9 6 28 11 18 5 12 29 50 47 54 49 45
13 0 16 24 13 33 28 17 15 15 7 8 9 12 10 11 11 14 14 5 8 11 6 8 7 14 24 12 9 9 11 11 10 10 10 31 25 7 11 18 31 45 38 43 49
13 8 1 8 12 13 30 23 21 15 16 22 1 11 17 12 7 11 6 5 3 4 6 13 20 9 2 5 5 9 11 22 18 18 19 16 18 11 21 23 45 45 30 39 48
13 7 1 8 5 22 18 20 34 15 20 10 13 22 22 12 15 15 12 7 10 4 8 2 4 4 4 4 6 9 18 14 17 11 12 11 39 13 21 33 33 38 28 41 46
25 18 10 8 5 10 6 11 19 18 17 15 30 16 27 40 24 10 15 18 15 18 14 10 11 7 18 3 6 14 22 30 17 15 21 26 36 10 8 24 41 36 31 39 48
Wind_Direction_850mb
249 253 255 256 262 267 272 282 292 297 302 306 307 309 311 312 311 311 310 278 245 240 249 209 188 189 132 107 73 96 63 200 235 183 255 337 6 308 325 276 272 290 286 308 308
250 251 255 261 266 269 275 277 279 284 291 297 301 304 309 312 310 307 287 260 195 170 160 159 168 151 117 125 135 93 115 222 221 203 237 305 282 320 317 306 305 300 325 318 295
251 255 261 264 270 273 275 278 282 284 288 292 294 297 304 313 316 241 187 141 135 145 151 159 170 208 185 184 194 165 197 208 247 252 275 286 292 139 263 302 302 326 325 316 298
253 254 258 265 268 271 274 277 279 282 286 289 290 294 298 306 296 208 194 203 234 215 196 196 216 174 166 213 202 210 251 233 272 240 285 273 297 278 238 276 303 323 323 356 8
254 257 260 264 267 270 273 275 278 280 283 285 287 288 290 275 258 256 248 259 258 239 220 219 215 194 183 207 188 216 273 276 278 283 286 277 265 271 278 304 333 356 46 51 34
260 261 263 263 264 266 268 271 273 275 280 282 283 282 277 253 257 253 250 252 244 238 224 224 230 215 201 224 184 264 276 283 287 279 274 252 271 196 291 23 10 9 20 14 8
259 262 262 262 261 261 262 265 270 275 279 280 282 278 267 262 265 256 249 238 227 228 225 230 214 198 175 238 253 287 316 321 278 281 205 180 282 226 279 336 2 14 25 17 15
257 257 259 259 261 263 264 267 270 273 279 281 280 277 258 260 252 249 244 246 240 229 224 225 219 227 223 202 6 359 40 328 275 154 13 142 261 282 344 352 70 78 71 77 65
258 259 257 259 261 261 264 267 271 274 277 278 277 252 263 258 243 238 237 230 221 215 215 206 194 191 140 94 360 2 238 213 313 256 143 146 256 273 329 333 91 84 86 83 80
255 258 259 257 258 262 266 270 278 280 273 270 250 260 238 231 223 218 210 197 182 180 165 179 164 92 59 108 226 210 221 240 233 202 32 297 257 346 349 15 107 91 85 81 74
253 249 251 255 255 256 260 277 281 270 237 221 230 218 271 210 199 199 193 177 163 166 156 159 122 206 204 200 177 174 190 231 261 263 297 240 254 4 15 66 84 92 92 85 77
249 248 245 242 244 252 254 247 237 267 295 259 251 246 241 225 214 204 191 182 176 181 120 63 221 230 141 184 214 219 241 254 274 265 172 282 250 104 56 54 89 100 99 96 92
244 243 241 238 239 245 247 244 257 268 262 262 242 243 235 232 227 211 199 196 170 159 191 179 216 185 176 177 169 220 197 226 222 340 307 326 290 182 64 87 97 102 106 101 94
236 234 229 231 244 246 248 247 232 228 277 254 212 213 193 178 227 216 197 194 191 201 175 236 248 187 176 208 150 232 207 223 184 124 228 44 278 232 127 83 67 100 100 99 99
235 226 225 217 217 220 232 216 188 177 273 175 165 160 162 173 136 165 185 185 169 179 136 242 178 171 196 212 159 232 146 165 145 137 88 277 314 251 122 162 166 141 128 120 109
242 224 219 221 222 232 229 187 159 125 240 202 145 162 132 175 155 124 153 145 133 158 197 236 264 182 205 109 163 132 104 54 54 107 270 216 180 222 186 188 165 168 153 139 125
237 237 219 220 223 218 208 170 176 219 22 194 187 164 173 162 170 150 153 164 160 137 224 307 239 193 158 85 33 77 74 330 333 351 235 123 152 260 306 278 179 166 162 153 140
243 235 231 222 230 224 197 175 213 187 200 129 132 103 179 158 208 166 134 175 218 185 132 171 271 166 185 177 182 179 161 160 236 211 268 326 237 259 344 98 143 159 160 160 156
251 230 228 221 226 222 202 210 220 171 175 151 96 148 221 205 148 145 187 200 194 182 176 147 262 162 165 147 140 182 185 176 109 92 39 232 288 210 100 89 134 157 168 173 172
233 248 236 234 235 223 208 218 230 208 149 150 176 171 181 193 162 183 178 198 199 188 174 190 252 200 171 115 46 157 160 98 18 222 246 277 273 237 207 184 175 181 188 189 186
234 218 230 235 218 197 222 208 183 231 199 170 193 161 180 176 172 186 194 229 190 170 160 144 149 231 122 202 180 152 174 68 128 143 181 251 256 216 199 187 186 195 197 195 195
214 199 200 195 188 181 196 175 174 174 182 266 81 127 166 147 143 203 202 213 170 148 164 190 136 174 205 178 319 300 186 160 199 228 236 176 260 248 197 187 186 200 203 203 205
220 206 182 184 207 193 170 199 168 156 187 174 211 205 187 174 196 220 194 131 170 161 166 183 144 38 326 352 349 217 215 152 114 83 222 200 253 14 130 169 196 200 207 208 207
197 146 197 214 226 208 187 196 177 196 199 176 164 166 169 189 216 200 209 168 154 153 141 155 167 185 227 206 137 178 203 189 160 200 199 232 260 224 191 206 200 206 212 213 215
184 208 303 194 226 204 193 170 191 175 212 185 162 198 193 203 198 200 127 109 24 161 112 162 222 175 33 109 139 204 200 188 193 208 201 242 224 211 201 206 207 205 220 217 210
163 170 222 312 181 207 188 188 184 165 168 196 212 198 216 206 193 192 143 170 191 90 150 355 187 92 213 4 17 285 238 221 234 242 259 258 263 152 209 218 214 230 235 216 212
216 221 167 197 227 154 203 178 190 146 194 192 202 198 207 221 203 170 181 183 176 163 166 145 134 129 243 50 132 283 240 204 207 198 202 225 248 138 197 216 233 241 231 226 211